#timestamp,LO_Frequency,Hit,StdDev 
1663462815.3,286047000.2,N
1663462835.1,286047001.0,N
1663462855.9,286047000.6,N
1663462875.7,286047000.1,N
1663462895.5,286047004.2,N
1663462915.4,286047004.2,N
1663462935.2,286047004.0,N
1663462955.1,286047001.8,N
1663462956.0,286047001.8,N
1663462975.8,286047002.8,N
1663462995.6,286047002.7,N
1663463015.5,286047001.4,N
1663463035.3,286047003.9,N
1663463055.1,286047000.5,N
1663463075.9,286046999.8,N
1663463095.7,286047001.9,N
1663463115.6,286047002.1,N
1663463135.4,286047002.0,N
1663463155.2,286047004.0,N
1663463175.1,286047002.1,N
1663463176.0,286047002.1,N
1663463195.8,286047001.4,N
1663463215.7,286047004.0,N
1663463235.5,286047002.7,N
1663463255.3,286047001.8,N
1663463275.2,286047001.4,N
1663463295.0,286047005.1,N
1663463295.9,286047005.1,Y
1663463315.7,286047003.5,P
1663463335.6,286047002.4,P
1663463355.4,286046998.8,N
1663463375.3,286047000.2,N
1663463395.1,286047001.8,N
1663463396.0,286047001.8,N
1663463415.8,286047001.3,N
1663463435.7,286047004.0,N
1663463455.5,286047002.7,N
1663463475.4,286047001.0,N
1663463495.2,286047001.9,N
1663463515.0,286046999.7,N
1663463515.9,286046999.7,N
1663463535.8,286047001.4,N
1663463555.6,286046999.7,N
1663463575.4,286046999.8,N
1663463595.3,286047001.4,N
1663463615.1,286047004.0,N
1663463635.3,286047000.3,N
1663463655.1,286046998.3,N
1663463675.9,286047000.3,N
1663463695.7,286047000.2,N
1663463715.5,286047002.3,N
1663463735.4,286047003.5,N
1663463755.2,286047001.9,N
1663463775.0,286047001.7,N
1663463775.9,286047001.7,N
1663463795.8,286047004.2,N
1663463815.6,286047001.6,N
1663463835.5,286047002.5,N
1663463855.3,286047001.6,N
1663463875.1,286047002.2,N
1663463895.9,286047002.5,N
1663463915.7,286047004.1,N
1663463935.6,286047003.6,N
1663463955.4,286047003.4,N
1663463975.2,286047002.5,N
1663463995.1,286046999.9,N
1663463996.0,286046999.9,N
1663464015.8,286047001.5,N
1663464035.6,286047003.1,N
1663464055.5,286047002.9,N
1663464075.3,286047002.9,N
1663464095.2,286047003.9,N
1663464115.9,286047003.7,N
1663464135.7,286047003.9,N
1663464155.6,286047002.1,N
1663464175.4,286047002.5,N
1663464195.2,286047002.0,N
1663464215.1,286047000.4,N
1663464216.0,286047000.4,N
1663464235.8,286047000.6,N
1663464255.7,286047002.5,N
1663464275.5,286047004.1,Y
1663464295.3,286047001.9,P
1663464315.2,286047002.9,P
1663464335.0,286047001.8,P
1663464335.9,286047001.8,Y
1663464355.7,286046998.8,P
1663464375.6,286046999.4,N
1663464395.4,286046999.3,N
1663464415.3,286046996.6,N
1663464435.1,286046998.2,N
1663464436.0,286046998.2,N
1663464455.8,286047000.4,N
1663464475.7,286047002.7,N
1663464495.5,286047001.8,N
1663464515.3,286047001.5,N
1663464535.2,286047003.7,N
1663464555.0,286047003.8,N
1663464555.9,286047003.8,N
1663464575.8,286047003.2,N
1663464595.6,286047003.4,N
1663464615.4,286047003.0,N
1663464635.3,286047005.5,N
1663464655.1,286047003.9,N
1663464675.9,286047001.8,N
1663464695.7,286047002.5,N
1663464715.5,286047001.5,N
1663464735.4,286047001.9,N
1663464755.2,286047002.8,N
1663464775.0,286047002.8,N
1663464775.9,286047002.8,N
1663464795.8,286047002.1,N
1663464815.6,286047001.6,N
1663464835.5,286047002.2,N
1663464855.3,286047002.1,N
1663464875.1,286047002.0,N
1663464895.9,286047002.0,N
1663464915.7,286047002.0,N
1663464935.5,286047002.1,N
1663464955.4,286047002.7,N
1663464975.2,286047001.7,N
1663464995.1,286047002.6,N
1663464996.0,286047002.6,N
1663465015.8,286047001.0,N
1663465035.6,286046999.1,N
1663465055.5,286046996.5,Y
1663465075.3,286046998.0,P
1663465095.2,286046993.6,N
1663465115.0,286046995.9,N
1663465115.9,286046995.9,N
1663465135.8,286046996.1,N
1663465155.6,286046994.5,N
1663465175.4,286046992.1,N
1663465195.4,286046991.9,N
1663465215.2,286046992.2,N
1663465235.1,286046991.8,N
1663465236.0,286046991.8,N
1663465255.8,286046992.8,N
1663465275.6,286046992.3,N
1663465295.5,286046994.5,N
1663465315.3,286046994.7,N
1663465335.2,286046993.0,N
1663465355.0,286046992.6,N
1663465355.9,286046992.6,N
1663465375.7,286046990.5,Y
1663465395.6,286046996.6,P
1663465415.4,286046997.0,N
1663465435.3,286046997.3,N
1663465455.1,286046996.6,N
1663465475.8,286046997.9,N
1663465495.7,286046994.9,Y
1663465515.5,286047000.9,P
1663465535.4,286047000.0,N
1663465555.2,286046999.9,N
1663465575.0,286047001.2,N
1663465575.9,286047001.2,N
1663465595.8,286046999.3,N
1663465615.6,286046999.3,N
1663465635.5,286046999.1,N
1663465655.3,286046999.1,N
1663465675.1,286046999.4,N
1663465695.9,286046999.2,N
1663465715.7,286046996.6,N
1663465735.6,286046999.3,N
1663465755.4,286047001.2,N
1663465775.2,286046998.5,N
1663465795.1,286046999.2,N
1663465796.0,286046999.2,N
1663465815.8,286046998.4,N
1663465835.6,286046998.6,N
1663465855.5,286046998.6,N
1663465875.3,286046998.8,N
1663465895.2,286046998.2,N
1663465915.9,286047000.8,N
1663465935.7,286046998.8,N
1663465955.6,286046998.8,N
1663465975.4,286046998.4,N
1663465995.2,286046998.1,N
1663466015.1,286046998.4,N
1663466016.0,286046998.4,N
1663466035.8,286046998.6,N
1663466055.7,286046998.5,N
1663466075.5,286046998.5,N
1663466095.3,286046999.0,N
1663466115.2,286046999.2,N
1663466135.0,286046997.4,N
1663466135.9,286046997.4,Y
1663466155.8,286046996.9,P
1663466175.6,286046999.0,N
1663466195.4,286047000.7,N
1663466215.3,286047000.9,N
1663466235.1,286047001.0,N
1663466255.8,286047000.4,N
1663466275.7,286047001.2,N
1663466295.5,286047001.2,N
1663466315.4,286046998.3,N
1663466335.2,286046999.0,N
1663466355.0,286046998.1,N
1663466355.9,286046998.1,N
1663466375.8,286046998.2,N
1663466395.6,286046998.9,N
